Regional Weather Roundup
Issued by NWS

Home | Current Version | Previous Version | Text Only | Print | Product List | Glossary Off
Versions: 1 2 3 4 5 6 7 8 9 10 11 12 13 14 15 16 17 18 19 20 21 22 23 24 25 26 27 28 29 30 31 32 33 34 35 36 37 38 39 40 41 42 43 44 45 46 47 48 49 50

000
ASUS43 KFSD 301502
RWRSD

WEATHER ROUNDUP FOR SOUTH DAKOTA
NATIONAL WEATHER SERVICE SIOUX FALLS SD
1000 AM CDT TUE JUN 30 2015

NOTE: "FAIR" INDICATES FEW OR NO CLOUDS BELOW 12,000 FEET WITH NO
SIGNIFICANT WEATHER AND/OR OBSTRUCTIONS TO VISIBILITY.


SDZ001>005-009-010-012>017-301600-
NORTHWEST AND NORTH CENTRAL SOUTH DAKOTA

CITY           SKY/WX    TMP DP  RH WIND       PRES   REMARKS
BUFFALO          N/A     70  63  78 E8        29.87S
FAITH            N/A     71  60  68 SE20G26   29.92F
MOBRIDGE       CLOUDY    70  67  90 S9        29.91F
$$

SDZ012>016-024>037-041>051-057-063-072>074-301600-
SOUTHWEST AND SOUTH CENTRAL SOUTH DAKOTA

CITY           SKY/WX    TMP DP  RH WIND       PRES   REMARKS
RAPID CTY ARPT PTSUNNY   76  61  59 CALM      29.95F
PIERRE         CLOUDY    72  63  73 SE10      29.92R
CUSTER         CLOUDY    71  56  58 SW3       30.13S
ELLSWORTH AFB  CLOUDY    76  57  50 N2        29.95S
PHILIP         PTSUNNY   78  64  61 SE10      29.90F
PINE RIDGE     PTSUNNY   76  58  53 W5        29.98F
WINNER         FAIR      76  58  53 SE16      29.94R
$$

SDZ004>011-016>023-039-040-301600-
NORTHEAST SOUTH DAKOTA

CITY           SKY/WX    TMP DP  RH WIND       PRES   REMARKS
ABERDEEN       CLOUDY    74  63  68 SE6       29.93F
WATERTOWN      PTSUNNY   70  62  76 E3        29.94F
BROOKINGS      CLOUDY    70  63  78 E5        29.96S
SISSETON         N/A     67  61  81 SE7       29.94S
$$

SDZ017-020-022-023-036>040-048>070-301600-
SOUTHEAST SOUTH DAKOTA

CITY           SKY/WX    TMP DP  RH WIND       PRES   REMARKS
SIOUX FALLS    CLOUDY    70  63  78 CALM      29.95R
HURON          CLOUDY    68  65  90 SE6       29.92F FOG
CHAMBERLAIN    CLOUDY    72  64  76 SE8       29.94S
MITCHELL       LGT RAIN  68  66  93 E5        29.95S FOG
YANKTON        CLOUDY    68  64  88 N12       29.98R
$$

ABBREVIATIONS USED IN REMARKS
   TC - TEMPERATURE IN CELSIUS
  WCI - WIND CHILL INDEX
   HX - HEAT INDEX
  VSB - VISIBILITY



USA.gov is the U.S. government's official web portal to all federal, state and local government web resources and services.